Weather History for Abilene Dyess, TX

Change the Weather History Date:

Friday, March 1, 2013

  Actual Average Record
Temperature  
Mean Temperature 42 °F -  
Max Temperature 59 °F 60 °F 96 °F (2006)
Min Temperature 26 °F 39 °F 22 °F (2009)
Degree Days  
Heating Degree Days 22    
Moisture  
Dew Point 20 °F    
Average Humidity 42    
Maximum Humidity 69    
Minimum Humidity 17    
Precipitation  
Precipitation 0.00 in - - ()
Sea Level Pressure  
Sea Level Pressure 30.24 in    
Wind  
Wind Speed 8 mph (NNW)    
Max Wind Speed 28 mph    
Max Gust Speed 38 mph    
Visibility 10 miles    
Events      
Averages and records for this station are not official NWS values.
T = Trace of Precipitation, MM = Missing Value Source: NWS Daily Summary

Daily Weather History Graph

Daily Weather History Graph

Search for Another Location

Airport:

Trip Planner

Search our weather history database for the weather conditions in past years. The results will help you decide how hot, cold, wet, or windy it might be!

Date:

Astronomy

Mar. 01, 2013 Rise Set
Actual Time 7:06 AM CST 6:37 PM CST
Civil Twilight 6:42 AM CST 7:01 PM CST
Nautical Twilight 6:13 AM CST 7:30 PM CST
Astronomical Twilight 5:45 AM CST 7:58 PM CST
Moon 10:53 PM CST (3/1) 9:11 AM CST (3/1)
Length of Visible Light 12h 19m
Length of Day
11h 30m
Waning Gibbous, 83% of the Moon is Illuminated
Mar 1
Waning Gibbous
Mar 4
Last Quarter
Mar 11
New
Mar 19
First Quarter
Mar 27
Full

Hourly Weather History & Observations

Time (CST) Temp. Windchill Dew Point Humidity Pressure Visibility Wind Dir Wind Speed Gust Speed Precip Events Conditions
12:58 AM 32.2 °F - 18.1 °F 56% 30.25 in 10.0 mi Calm Calm - N/A   Clear
1:58 AM 27.0 °F 20.5 °F 17.6 °F 68% 30.24 in 10.0 mi SW 5.8 mph - N/A   Clear
2:58 AM 26.8 °F 20.2 °F 17.6 °F 68% 30.21 in 10.0 mi SW 5.8 mph - N/A   Clear
3:58 AM 29.1 °F 23.0 °F 17.2 °F 61% 30.21 in 10.0 mi SW 5.8 mph - N/A   Clear
4:58 AM 28.0 °F 22.8 °F 18.5 °F 67% 30.21 in 10.0 mi WSW 4.6 mph - N/A   Clear
5:58 AM 34.5 °F 27.9 °F 19.9 °F 55% 30.21 in 10.0 mi SW 8.1 mph - N/A   Clear
6:58 AM 32.4 °F 26.0 °F 19.8 °F 60% 30.21 in 10.0 mi SW 6.9 mph - N/A   Mostly Cloudy
7:58 AM 37.0 °F 33.3 °F 22.3 °F 55% 30.23 in 10.0 mi SSW 4.6 mph - N/A   Mostly Cloudy
8:58 AM 42.3 °F 40.5 °F 23.4 °F 47% 30.25 in 10.0 mi NNE 3.5 mph - N/A   Clear
9:58 AM 50.2 °F - 23.2 °F 35% 30.27 in 10.0 mi NE 6.9 mph - N/A   Clear
10:58 AM 51.3 °F - 24.3 °F 35% 30.28 in 10.0 mi North 9.2 mph - N/A   Clear
11:58 AM 56.3 °F - 22.1 °F 27% 30.27 in 10.0 mi NNE 8.1 mph - N/A   Clear
12:58 PM 58.8 °F - 20.1 °F 22% 30.24 in 10.0 mi NNW 10.4 mph - N/A   Clear
1:58 PM 59.5 °F - 18.7 °F 21% 30.22 in 10.0 mi North 18.4 mph 26.5 mph N/A   Clear
2:22 PM 59.0 °F - 19.4 °F 22% 30.21 in 10.0 mi North 16.1 mph 23.0 mph N/A   Partly Cloudy
2:30 PM 59.0 °F - 19.4 °F 22% 30.21 in 10.0 mi NW 17.3 mph 21.9 mph N/A   Partly Cloudy
2:58 PM 58.3 °F - 18.9 °F 22% 30.21 in 10.0 mi NNW 20.7 mph 28.8 mph N/A   Partly Cloudy
3:58 PM 57.9 °F - 18.1 °F 21% 30.19 in 10.0 mi North 20.7 mph 25.3 mph N/A   Scattered Clouds
4:58 PM 59.4 °F - 14.5 °F 17% 30.19 in 10.0 mi North 27.6 mph 38.0 mph N/A   Clear
5:56 PM 55.4 °F - 12.2 °F 18% 30.22 in 10.0 mi North 27.6 mph 36.8 mph N/A   Clear
6:58 PM 51.4 °F - 16.5 °F 25% 30.25 in 10.0 mi NNE 15.0 mph - N/A   Clear
7:58 PM 47.1 °F - 19.0 °F 33% 30.27 in 10.0 mi NNE 6.9 mph - N/A   Clear
8:58 PM 43.0 °F 41.3 °F 22.6 °F 45% 30.28 in 10.0 mi ENE 3.5 mph - N/A   Clear
9:58 PM 41.9 °F - 24.8 °F 51% 30.32 in 10.0 mi Calm Calm - N/A   Clear
10:58 PM 34.3 °F - 21.2 °F 59% 30.34 in 10.0 mi NW 1.2 mph - N/A   Clear
11:58 PM 32.2 °F - 23.0 °F 69% 30.34 in 10.0 mi Calm Calm - N/A   Clear